EB1TK-13 Weather Reports


time (UTC)temp
F
wind
direction
speed
knots
gust
knots
rain 1hr
in
rain 24hr
in
rain mn
in
humidity
%
barometer
mb
20260506220215 55 139 2.6 3.5 0.00 0.04 0.00 92 1013.7
20260506215216 55 0.0 0.0 0.00 0.04 0.04 91 1013.7
20260506214216 56 0.0 0.0 0.00 0.04 0.04 91 1013.6
20260506213216 56 0.0 0.0 0.00 0.04 0.04 91 1013.7
20260506212219 56 0.0 0.0 0.00 0.04 0.04 90 1013.7
20260506211217 56 0.0 0.0 0.00 0.04 0.04 90 1013.7
20260506210215 56 0.0 0.0 0.00 0.04 0.04 90 1013.8
20260506205215 57 36 0.9 1.7 0.00 0.04 0.04 89 1013.8
20260506204216 57 0.0 0.0 0.00 0.04 0.04 88 1013.7
20260506203216 57 0.0 0.0 0.00 0.04 0.04 87 1013.7
20260506202219 57 0.0 0.0 0.00 0.04 0.04 86 1013.6
20260506201217 57 0.0 0.0 0.00 0.04 0.04 86 1013.6
20260506200214 57 0.0 0.0 0.00 0.04 0.04 86 1013.5
20260506195215 57 0.0 0.0 0.00 0.04 0.04 86 1013.6
20260506194215 57 0.0 0.0 0.00 0.04 0.04 86 1013.5
20260506193216 57 0.0 0.0 0.00 0.04 0.04 86 1013.5
20260506192216 57 0.0 0.0 0.00 0.04 0.04 86 1013.5
20260506191216 57 36 0.9 1.7 0.00 0.06 0.04 86 1013.5
20260506190217 57 36 2.6 3.5 0.00 0.07 0.04 86 1013.4
20260506185215 57 35 2.6 3.5 0.00 0.09 0.04 85 1013.3
20260506184215 58 36 1.7 2.6 0.00 0.09 0.04 85 1013.4
20260506183215 58 41 3.5 5.2 0.00 0.09 0.04 85 1013.4
20260506182216 58 33 3.5 4.3 0.00 0.09 0.04 85 1013.4
20260506181216 58 36 4.3 5.2 0.00 0.09 0.04 85 1013.5
20260506180217 58 24 2.6 3.5 0.00 0.09 0.04 85 1013.4
20260506175217 58 8 4.3 6.1 0.00 0.09 0.04 84 1013.4
20260506174215 58 15 3.5 4.3 0.00 0.09 0.04 84 1013.5
20260506173215 58 20 5.2 7.0 0.00 0.09 0.04 85 1013.5
20260506172215 58 13 4.3 7.0 0.00 0.09 0.04 86 1013.6
20260506171216 58 13 4.3 7.0 0.00 0.09 0.04 86 1013.6
20260506170216 59 18 4.3 6.1 0.00 0.09 0.04 85 1013.7
20260506165217 60 355 2.6 4.3 0.00 0.09 0.04 83 1013.6
20260506164217 60 357 2.6 4.3 0.00 0.09 0.04 83 1013.5
20260506163215 60 4 3.5 6.1 0.00 0.09 0.04 82 1013.5
20260506162215 61 349 2.6 4.3 0.00 0.09 0.04 81 1013.3
20260506161218 61 5 4.3 7.0 0.00 0.09 0.04 80 1013.2
20260506160216 61 348 5.2 8.7 0.00 0.09 0.04 79 1013.3
20260506155216 61 6 2.6 4.3 0.00 0.09 0.04 80 1013.4
20260506154217 62 293 3.5 5.2 0.00 0.09 0.04 79 1013.4
20260506153217 62 4 3.5 7.0 0.00 0.09 0.04 80 1013.5
20260506152215 61 354 2.6 3.5 0.00 0.09 0.04 81 1013.6
20260506151215 61 306 4.3 7.8 0.00 0.09 0.04 79 1013.8
20260506150216 61 354 1.7 2.6 0.00 0.09 0.04 80 1013.8
20260506145216 61 345 3.5 7.0 0.00 0.09 0.04 79 1013.9
20260506144219 62 342 5.2 8.7 0.00 0.09 0.04 77 1013.9
20260506143217 62 342 5.2 7.8 0.00 0.09 0.04 76 1013.9
20260506142215 61 321 3.5 5.2 0.00 0.09 0.04 77 1014.0
20260506141215 61 278 7.0 8.7 0.00 0.09 0.04 78 1014.1
20260506140215 61 288 3.5 6.1 0.00 0.09 0.04 79 1014.1
20260506135216 62 324 4.3 8.7 0.00 0.09 0.04 79 1014.2
20260506134216 61 285 5.2 9.6 0.00 0.09 0.04 77 1014.4
20260506133217 61 252 4.3 7.8 0.00 0.09 0.04 80 1014.4
20260506132217 61 258 7.8 8.7 0.00 0.09 0.04 79 1014.4
20260506131215 60 296 6.1 10.4 0.00 0.09 0.04 79 1014.5
20260506130215 60 283 5.2 7.8 0.00 0.09 0.04 80 1014.4
20260506125215 60 270 6.1 12.2 0.00 0.09 0.04 81 1014.5
20260506124216 60 271 10.4 13.0 0.00 0.09 0.04 82 1014.5
20260506123216 60 271 7.8 10.4 0.00 0.09 0.04 84 1014.6
20260506122217 59 286 10.4 16.5 0.00 0.09 0.04 83 1014.6
20260506121217 59 267 13.0 17.4 0.00 0.09 0.04 83 1014.7
20260506120215 60 259 7.8 12.2 0.00 0.09 0.04 86 1014.6
20260506115215 59 277 7.8 11.3 0.00 0.09 0.04 84 1014.7
20260506114216 59 259 12.2 13.0 0.00 0.09 0.04 82 1014.7
20260506113216 59 272 8.7 13.0 0.00 0.10 0.04 83 1014.7
20260506112216 59 268 11.3 14.8 0.00 0.10 0.04 83 1014.7
20260506111217 59 279 8.7 11.3 0.00 0.10 0.04 83 1014.8
20260506110217 59 268 9.6 13.0 0.00 0.10 0.04 84 1014.8
20260506105215 59 272 7.8 11.3 0.00 0.10 0.04 82 1014.7
20260506104215 59 260 11.3 13.9 0.00 0.10 0.04 83 1014.7
20260506102216 59 263 10.4 13.9 0.00 0.10 0.04 83 1014.8
20260506101216 58 265 8.7 10.4 0.00 0.10 0.04 83 1014.9
20260506100217 58 267 11.3 15.6 0.00 0.10 0.04 82 1014.8
20260506095215 58 267 9.6 12.2 0.00 0.10 0.04 83 1014.8
20260506094215 58 256 7.8 10.4 0.00 0.10 0.04 82 1014.7
20260506093215 58 266 8.7 13.0 0.00 0.10 0.04 82 1014.7
20260506092216 58 240 7.0 10.4 0.00 0.10 0.04 82 1014.6
20260506091216 58 252 7.8 11.3 0.00 0.11 0.04 82 1014.5
20260506090217 58 248 10.4 13.9 0.00 0.12 0.04 84 1014.5
20260506085217 57 254 7.0 8.7 0.00 0.12 0.04 84 1014.6
20260506084215 57 272 7.0 10.4 0.00 0.13 0.04 84 1014.6
20260506083215 56 260 7.0 9.6 0.00 0.13 0.04 84 1014.5
20260506082216 57 256 5.2 7.8 0.00 0.13 0.04 85 1014.5
20260506081216 56 237 6.1 8.7 0.00 0.13 0.04 86 1014.5
20260506080216 56 259 7.8 9.6 0.00 0.13 0.04 87 1014.5
20260506073215 54 218 4.3 7.8 0.00 0.13 0.04 90 1014.5
20260506072215 54 227 4.3 7.0 0.00 0.13 0.04 89 1014.5
20260506071215 54 237 7.0 9.6 0.00 0.13 0.04 89 1014.5
20260506070216 54 239 6.1 8.7 0.00 0.13 0.04 87 1014.5
20260506062215 54 243 5.2 6.1 0.00 0.13 0.04 86 1014.2
20260506061215 53 227 6.1 7.8 0.00 0.13 0.04 87 1014.2
20260506060215 53 235 5.2 7.0 0.00 0.13 0.04 88 1014.2
20260506051215 53 243 5.2 9.6 0.00 0.13 0.04 88 1013.9
20260506050215 53 231 4.3 7.8 0.00 0.13 0.04 89 1013.9
20260506044216 53 238 5.2 7.0 0.00 0.13 0.04 90 1013.8
20260506043216 52 234 6.1 7.8 0.00 0.13 0.04 91 1013.8
20260506042217 52 225 5.2 7.0 0.00 0.13 0.04 91 1013.9
20260506041215 52 230 4.3 6.1 0.00 0.13 0.04 91 1014.0
20260506040215 52 231 4.3 6.1 0.00 0.13 0.04 91 1014.1
20260506035215 52 228 4.3 6.1 0.00 0.13 0.04 90 1014.2
20260506034216 52 242 6.1 8.7 0.00 0.13 0.04 90 1014.2
20260506033216 53 240 5.2 7.0 0.00 0.13 0.04 89 1014.2
20260506032216 53 237 7.8 11.3 0.00 0.13 0.04 90 1014.3
20260506031216 53 235 5.2 7.8 0.00 0.13 0.04 90 1014.2
20260506030214 52 245 7.8 10.4 0.00 0.13 0.04 91 1014.2
20260506024215 52 231 5.2 7.8 0.02 0.13 0.04 91 1014.1
20260506023216 52 228 5.2 7.0 0.03 0.13 0.04 91 1014.1
20260506022215 52 235 6.1 8.7 0.03 0.13 0.04 91 1014.2
20260506021215 53 233 6.1 8.7 0.03 0.13 0.04 91 1014.3
20260506020215 53 236 5.2 7.0 0.03 0.13 0.04 92 1014.3
20260506015215 53 236 5.2 7.0 0.03 0.13 0.04 91 1014.4
20260506014215 53 246 4.3 7.0 0.02 0.11 0.02 90 1014.5
20260506013215 53 247 5.2 7.8 0.00 0.09 0.01 89 1014.5
20260506012216 53 229 4.3 7.0 0.00 0.09 0.01 89 1014.5
20260506011216 53 247 6.1 7.8 0.00 0.09 0.01 90 1014.6
20260506010216 53 233 6.1 8.7 0.00 0.09 0.01 90 1014.6
20260506005217 53 229 5.2 7.0 0.00 0.09 0.01 90 1014.8
20260506004215 52 249 5.2 7.0 0.01 0.09 0.01 90 1014.9
20260506003215 52 243 5.2 7.0 0.01 0.09 0.01 91 1015.0
20260506002216 53 244 5.2 7.0 0.01 0.09 0.01 90 1015.1
20260506001216 53 232 7.0 7.8 0.01 0.09 0.01 89 1015.0
20260506000219 54 238 8.7 13.0 0.01 0.09 0.01 89 1015.1
20260505235217 53 245 5.2 7.8 0.01 0.09 0.01 90 1015.3
20260505234217 53 240 5.2 7.0 0.00 0.09 0.00 90 1015.2
20260505233215 53 243 4.3 6.1 0.00 0.09 0.00 90 1015.3
20260505232220 53 247 4.3 5.2 0.00 0.09 0.00 90 1015.3
20260505231216 53 238 5.2 7.0 0.00 0.09 0.00 90 1015.2
20260505230216 54 242 6.1 7.8 0.00 0.09 0.00 91 1015.2
20260505225216 54 243 4.3 7.0 0.00 0.09 0.00 91 1015.4
20260505224217 54 229 3.5 4.3 0.00 0.09 0.00 91 1015.4
20260505223217 54 241 4.3 6.1 0.00 0.09 0.00 90 1015.4
20260505222215 55 248 5.2 7.0 0.00 0.09 0.00 91 1015.5
20260505221215 55 239 5.2 7.0 0.00 0.09 0.00 90 1015.4